Miscellaneous Local Product
Issued by NWS Hastings, NE

Home | Current Version | Previous Version | Graphics & Text | Print | Product List | Glossary On
Versions: 1 2 3 4 5 6 7 8 9 10 11 12 13 14 15 16 17 18 19 20 21 22 23 24 25 26 27 28 29 30 31 32 33 34 35 36 37 38 39 40 41 42 43 44 45 46 47 48 49 50
000
AXUS43 KGID 041902
MISGRI

GID CWA HOURLY WEATHER ROUNDUP
NATIONAL WEATHER SERVICE HASTINGS NE
200 PM CDT SAT JUL 04 2015

NOTE: "FAIR" INDICATES FEW OR NO CLOUDS BELOW 12,000 FEET WITH NO
SIGNIFICANT WEATHER AND/OR OBSTRUCTIONS TO VISIBILITY.

...SOUTH CENTRAL NEBRASKA...

CITY           SKY/WX    TMP DP  RH WIND       PRES   REMARKS
GRAND ISLAND   MOSUNNY   83  65  54 SE15      29.97F
HASTINGS       MOSUNNY   83  65  54 S13       29.97F
KEARNEY        SUNNY     82  64  54 S20G25    29.96S
ORD            MOSUNNY   84  63  49 S16G25    29.93S
YORK           PTSUNNY   77  64  65 S13       29.99S
AURORA         MOSUNNY   80  65  60 S13G18    29.97F
LEXINGTON      MOSUNNY   85  66  52 S16G22    29.95S
HOLDREGE       MOSUNNY   82  62  51 S16       29.97S
HEBRON         PTSUNNY   81  62  53 SE9       29.98F

...NEBRASKA PANHANDLE...

CITY           SKY/WX    TMP DP  RH WIND       PRES   REMARKS
CHADRON        SUNNY     89  64  43 VRB7      29.85S HX  90
ALLIANCE       SUNNY     86  64  47 S10       29.91S
SCOTTSBLUFF    SUNNY     90  64  42 SE12G18   29.90F HX  91
SIDNEY         SUNNY     89  58  34 S12G18    29.95F

...WESTERN AND NORTH CENTRAL NEBRASKA...

CITY           SKY/WX    TMP DP  RH WIND       PRES   REMARKS
VALENTINE      SUNNY     88  64  44 S17       29.87F
AINSWORTH      SUNNY     86  65  49 S15G22    29.90F
ONEILL         MOSUNNY   83  64  52 S13G18    29.93S
BROKEN BOW     SUNNY     85  66  53 S14G28    29.94S
IMPERIAL       SUNNY     91  59  33 S17G24    29.92F HX  90
NORTH PLATTE   SUNNY     87  64  46 S16       29.92F
MCCOOK         SUNNY     91  61  36 SE16G26   29.91F HX  91

...EASTERN NEBRASKA...

CITY           SKY/WX    TMP DP  RH WIND       PRES   REMARKS
NORFOLK        PTSUNNY   80  65  59 S13       29.96F
SO SIOUX CITY  MOSUNNY   81  64  56 SW9       29.96S
TEKAMAH        MOSUNNY   82  62  50 S8        29.96F
COLUMBUS       PTSUNNY   79  63  57 S8        29.99S
ALBION         MOSUNNY   81  64  55 S13       29.97R
OMAHA EPPLEY   PTSUNNY   80  58  46 SE12      29.98F
OFFUTT AFB     PTSUNNY   80  63  55 SE8       29.98F
MILLARD        PTSUNNY   80  63  56 SE9       29.98S
LINCOLN        CLOUDY    81  64  56 SE13      29.99S
NEBRASKA CITY  MOSUNNY   79  55  42 SE9       30.00S
BEATRICE       PTSUNNY   80  62  54 SE10G16   29.99S
FALLS CITY     MOSUNNY   81  61  50 VRB7      29.99S

...NORTHERN KANSAS...

CITY           SKY/WX    TMP DP  RH WIND       PRES   REMARKS
GOODLAND       SUNNY     90  59  35 S18G28    29.94F
NORTON         CLEAR     90  54  29 SE15G24   29.93S
PHILLIPSBURG   SUNNY     90  63  40 SE15G21   29.94F HAZE    HX  90
SMITH CENTER   MOSUNNY   86  61  42 SE9G23    29.96F
HAYS           SUNNY     88  64  45 S17G25    29.96F
RUSSELL        MOSUNNY   86  65  49 S15G23    29.95F
CONCORDIA      MOSUNNY   83  63  50 SE13G22   29.97F
SALINA         SUNNY     89  60  37 S7        29.97S
TOPEKA         MOSUNNY   82  62  50 E6        29.99F



USA.gov is the U.S. government's official web portal to all federal, state and local government web resources and services.